Hourly Data Report for May 22, 2012

All times are specified in Local Standard Time (LST). Add 1 hour to adjust for Daylight Saving Time where and when it is observed.

GANDER INTL A
NEWFOUNDLAND

48°56'13.000" N
54°34'05.000" W
151.20 m
8401703
71803
YQX

Related Data

No related data is available for this station

Download Data

Hourly Data (May 2012)
Hourly Data Report for May 22, 2012
Temp Definition
°C
Dew Point Temp Definition
°C
Rel Hum Definition
%
Wind Dir Definition
10's deg

Wind Spd Definition
km/h
Visibility Definition
km
Stn Press Definition
kPa
Hmdx Definition


Wind Chill Definition


Weather Definition


TIME
00:30 Legend Double Dagger 9.5 1.7 58 23 21 10.0 100.05     LegendNANA
01:30 Legend Double Dagger 7.9 2.4 68 23 10 10.0 100.05     LegendNANA
02:30 Legend Double Dagger 8.0 3.3 72 23 21 10.0 100.06     Mostly Cloudy
03:30 Legend Double Dagger 7.5 3.8 77 22 15 10.0 100.02     LegendNANA
04:30 Legend Double Dagger 8.1 4.3 77 24 15 10.0 99.99     LegendNANA
05:30 Legend Double Dagger 8.5 4.9 78 24 15 10.0 99.98     Mostly Cloudy
06:30 Legend Double Dagger 9.6 6.0 78 25 17 10.0 99.98     LegendNANA
07:30 Legend Double Dagger 15.9 8.7 62 21 13 10.0 99.94     LegendNANA
08:30 Legend Double Dagger 19.2 10.1 55 22 11 10.0 99.90     Mostly Cloudy
09:30 Legend Double Dagger 21.9 11.5 51 21 12 10.0 99.87     LegendNANA
10:30 Legend Double Dagger 24.1 12.3 47 27 11 10.0 99.85 27   LegendNANA
11:30 Legend Double Dagger 26.3 12.9 43 23 10 10.0 99.81 29   Mostly Cloudy
12:30 Legend Double Dagger 27.6 14.1 43 24 14 10.0 99.77 31   LegendNANA
13:30 Legend Double Dagger 29.3 12.5 35 23 17 10.0 99.70 32   LegendNANA
14:30 Legend Double Dagger 30.7 13.3 34 25 14 10.0 99.65 34   Mostly Cloudy
15:30 Legend Double Dagger 30.6 11.4 30 28 21 10.0 99.62 33   LegendNANA
16:30 Legend Double Dagger 29.8 11.6 32 26 25 10.0 99.63 32   LegendNANA
17:30 Legend Double Dagger 26.9 11.6 38 25 17 10.0 99.66 29   Mostly Cloudy
18:30 Legend Double Dagger 24.9 11.0 41 24 20 10.0 99.70 27   LegendNANA
19:30 Legend Double Dagger 22.9 9.5 42 26 17 10.0 99.71     LegendNANA
20:30 Legend Double Dagger 21.5 6.8 38 23 18 10.0 99.75     Mostly Cloudy
21:30 Legend Double Dagger 19.1 5.3 40 24 25 10.0 99.78     LegendNANA
22:30 Legend Double Dagger 16.9 6.2 49 24 22 10.0 99.79     LegendNANA
23:30 Legend Double Dagger 15.3 10.5 73 25 27 10.0 99.77     Mostly Cloudy

Notes on Data Quality.

Legend

  • E = Estimated
  • M = Missing
  • NA = Not Available
  • ‡ = Partner data that is not subject to review by the National Climate Archives
Date modified: